[[{"header":{"parameterUnit":"m.s-1","parameterCategory":1,"la1":30.2991,"la2":30.254,"lo1":-89.0895,"lo2":-89.0444,"dy":0.0017,"dx":0.0017,"nx":28,"ny":28,"refTime":"2024-10-13T21:00:00:Z","depth":0,"parameterNumber":2,"parameterNumberName":"U-component_of_WINDS"},"data":[0,0,0,0,0,0,0,0,0,0,0,0,0,0,0,0,0,0,0,0,0,0,0,0,0,0,0,0,0,0,0,0,0,0,0,0,0,0,0,0,0,0,0,0,0,0,0,0,0,0,0,0,0,0,0,0,0,0,-3.1375,-3.1377,0,-3.1503,-3.1504,-3.1506,-3.1485,-3.1483,-3.1481,-3.1479,-3.1612,-3.1618,-3.1623,0,0,0,0,0,0,0,0,0,0,0,0,0,-3.1117,-3.1122,-3.1375,-3.1377,-3.1378,-3.1503,-3.1504,-3.1506,-3.1486,-3.1483,-3.148,-3.1478,-3.1611,-3.1617,-3.1624,0,0,0,0,0,0,0,0,0,0,0,0,0,-3.1236,-3.1124,-3.1375,-3.1383,-3.1385,-3.1502,-3.1504,-3.1507,-3.1486,-3.1483,-3.148,-3.1477,-3.1608,-3.1617,-3.1625,-3.1743,0,0,-3.1651,-3.1654,0,0,0,0,0,0,0,0,-3.1229,-3.1245,-3.138,-3.1383,-3.1385,-3.1475,-3.1462,-3.1586,-3.1487,-3.1448,-3.1479,-3.1475,-3.157,-3.1581,-3.1612,-3.1749,-3.1755,-3.1651,-3.1656,-3.166,-3.1662,0,0,0,0,0,0,0,-3.1221,-3.124,-3.1426,-3.1382,-3.1385,-3.1382,-3.1395,-3.1486,-3.1526,-3.1451,-3.145,-3.1465,-3.157,-3.1604,-3.1615,-3.1757,-3.1651,-3.1658,-3.1664,-3.1667,-3.1998,-3.2002,0,0,0,0,0,0,-3.121,-3.1233,-3.1422,-3.143,-3.1297,-3.1389,-3.1404,-3.1449,-3.1525,-3.1533,-3.1468,-3.1464,-3.1591,-3.1605,-3.162,-3.1764,-3.166,-3.1668,-3.1673,-3.1995,-3.1999,-3.2003,0,0,0,0,0,0,-3.1204,-3.1227,-3.1417,-3.1331,-3.1355,-3.1397,-3.1448,-3.1454,-3.1487,-3.1537,-3.1545,-3.1495,-3.1589,-3.1608,-3.1712,-3.1768,-3.1672,-3.1679,-3.199,-3.1996,-3.2001,-3.2052,0,0,0,0,0,0,-3.1197,-3.1225,-3.1269,-3.1332,-3.1359,-3.1506,-3.1452,-3.1459,-3.1502,-3.1498,-3.1565,-3.1573,-3.1588,-3.17,-3.1721,-3.1778,-3.1686,-3.1985,-3.1993,-3.1999,-3.2046,-3.2059,-3.207,0,0,0,0,0,-3.1188,-3.1279,-3.1272,-3.1295,-3.1416,-3.1509,-3.1525,-3.154,-3.1506,-3.1552,-3.1584,-3.157,-3.1758,-3.1711,-3.1734,-3.1795,-3.1982,-3.1991,-3.1999,-3.204,-3.2056,-3.207,0,0,0,0,0,0,-3.1222,-3.1287,-3.128,-3.1394,-3.1446,-3.1506,-3.1564,-3.1557,-3.1621,-3.1614,-3.1631,-3.1647,-3.1753,-3.1784,-3.173,-3.1913,-3.1866,-3.1879,-3.1889,-3.1905,-3.1917,-3.1907,-3.1693,0,0,0,0,0,-3.1243,-3.1313,-3.1366,-3.1462,-3.1488,-3.1522,-3.1563,-3.157,-3.1625,-3.1648,-3.1687,-3.1743,-3.1814,-3.1861,-3.193,-3.205,-3.2065,-3.2103,-3.2115,-3.2125,-3.2137,-3.2204,-3.2222,-3.2031,-3.2031,-3.2031,0,0,-3.1287,-3.1331,-3.1374,-3.147,-3.1511,-3.1584,-3.154,-3.1619,-3.1674,-3.166,-3.1761,-3.1792,-3.1855,-3.1968,-3.202,-3.1998,-3.2193,-3.2136,-3.2143,-3.215,-3.2215,-3.2233,-3.2249,-3.2037,-3.2036,-3.2035,0,0,-3.1404,-3.1444,-3.1528,-3.1571,-3.1634,-3.1656,-3.1676,-3.1737,-3.1757,-3.1859,-3.185,-3.1916,-3.2039,-3.2084,-3.2123,-3.2259,-3.2249,-3.2281,-3.2345,-3.241,-3.2425,-3.2439,-3.2489,-3.2506,-3.2292,-3.2292,-3.2292,0,-3.1451,-3.156,-3.1573,-3.1653,-3.1696,-3.1686,-3.1772,-3.1813,-3.1896,-3.1926,-3.19,-3.2054,-3.2096,-3.222,-3.2253,-3.2285,-3.231,-3.2273,-3.2422,-3.2436,-3.2448,-3.2496,-3.2515,-3.2296,-3.2295,-3.2295,-3.2295,0,-3.1615,-3.169,-3.1751,-3.1831,-3.188,-3.1963,-3.199,-3.2039,-3.2042,-3.2067,-3.2172,-3.2221,-3.23,-3.233,-3.2334,-3.2456,-3.244,-3.2418,-3.237,-3.247,-3.2515,-3.2533,-3.2301,-3.2299,-3.2298,-3.2298,0,0,-3.1757,-3.1843,-3.1865,-3.1902,-3.1971,-3.2031,-3.2114,-3.219,-3.2233,-3.229,-3.2361,-3.2466,-3.2446,-3.249,-3.2499,-3.2557,-3.2663,-3.2527,-3.2529,-3.2552,-3.2802,-3.2819,-3.284,-3.2656,-3.266,-3.2663,-3.2797,0,-3.1882,-3.2028,-3.2042,-3.2173,-3.2244,-3.2236,-3.2309,-3.236,-3.2386,-3.2451,-3.248,-3.2554,-3.2521,-3.2548,-3.2604,-3.2638,-3.2713,-3.2628,-3.2724,-3.2728,-3.271,-3.2863,-3.2881,-3.3006,-3.2815,-3.2818,-3.282,0,-3.2047,-3.2109,-3.2247,-3.2307,-3.2337,-3.2402,-3.2474,-3.2536,-3.2594,-3.2609,-3.2659,-3.2661,-3.2748,-3.2697,-3.2818,-3.276,-3.2801,-3.2823,-3.2828,-3.2839,-3.278,-3.2879,-3.3045,-3.3064,-3.2847,-3.2845,-3.2843,0,-3.2138,-3.2256,-3.2354,-3.2386,-3.2458,-3.2504,-3.2537,-3.2592,-3.2638,-3.2701,-3.2731,-3.2804,-3.2844,-3.2901,-3.2923,-3.2883,-3.3044,-3.2994,-3.306,-3.306,-3.3095,-3.3093,-3.3272,-3.3119,-3.3119,-3.3119,-3.3118,0,-3.2276,-3.2361,-3.2397,-3.2457,-3.2553,-3.2569,-3.2664,-3.2694,-3.2744,-3.2811,-3.2809,-3.2872,-3.2897,-3.2965,-3.2983,-3.3082,-3.31,-3.3115,-3.3119,-3.3116,-3.3114,-3.3143,-3.3136,-3.3124,-3.3123,-3.3122,-3.3121,0,-3.2395,-3.2422,-3.2528,-3.2588,-3.2606,-3.2674,-3.2726,-3.2785,-3.281,-3.2895,-3.2916,-3.2956,-3.3036,-3.3063,-3.3161,-3.3173,-3.3288,-3.3284,-3.3268,-3.3269,-3.3334,-3.3328,-3.3539,-3.3568,-3.3396,-3.3397,-3.3399,0,-3.2482,-3.2547,-3.2614,-3.2659,-3.2693,-3.2765,-3.2811,-3.2831,-3.2879,-3.2951,-3.3002,-3.3081,-3.3146,-3.3274,-3.3313,-3.3388,-3.3386,-3.3455,-3.3398,-3.3393,-3.3389,-3.3385,-3.3393,-3.3466,-3.3468,-3.3469,-3.347,0,-3.2634,-3.2644,-3.271,-3.2782,-3.2837,-3.2895,-3.295,-3.2987,-3.3015,-3.307,-3.3152,-3.3202,-3.3301,-3.338,-3.3457,-3.3492,-3.3487,-3.3488,-3.3508,-3.3506,-3.3494,-3.3503,-3.3299,-3.3483,-3.3482,-3.3481,-3.348,-3.348,-3.274,-3.2798,-3.2854,-3.2929,-3.2973,-3.3025,-3.3084,-3.3116,-3.3184,-3.3266,-3.3274,-3.3362,-3.342,-3.3522,-3.3561,-3.3632,-3.3613,-3.364,-3.3648,-3.3655,-3.366,-3.3482,-3.3645,-3.3645,-3.3645,-3.3645,-3.3644,0,-3.2892,-3.2928,-3.2997,-3.3075,-3.3134,-3.3123,-3.3184,-3.3235,-3.3312,-3.3366,-3.343,-3.3524,-3.3601,-3.3646,-3.3724,-3.3772,-3.3771,-3.3792,-3.3789,-3.3797,-3.3672,-3.3648,-3.379,-3.379,-3.379,-3.379,-3.379,-3.379,-3.2979,-3.3077,-3.3094,-3.3214,-3.325,-3.3336,-3.3372,-3.3421,-3.3465,-3.357,-3.3634,-3.3662,-3.3713,-3.3795,-3.3866,-3.3877,-3.3906,-3.3929,-3.3938,-3.3821,-3.3806,-3.3792,-3.3769,-3.3935,-3.3935,-3.4058,-3.4059,-3.406]},{"header":{"parameterUnit":"m.s-1","parameterCategory":1,"la1":30.2991,"la2":30.254,"lo1":-89.0895,"lo2":-89.0444,"dy":0.0017,"dx":0.0017,"nx":28,"ny":28,"refTime":"2024-10-13T21:00:00:Z","depth":0,"parameterNumber":3,"parameterNumberName":"V-component_of_WINDS"},"data":[0,0,0,0,0,0,0,0,0,0,0,0,0,0,0,0,0,0,0,0,0,0,0,0,0,0,0,0,0,0,0,0,0,0,0,0,0,0,0,0,0,0,0,0,0,0,0,0,0,0,0,0,0,0,0,0,0,0,-0.8185,-0.8186,0,-0.8273,-0.8274,-0.8275,-0.8316,-0.8316,-0.8316,-0.8316,-0.8406,-0.8408,-0.8411,0,0,0,0,0,0,0,0,0,0,0,0,0,-0.805,-0.8052,-0.8185,-0.8186,-0.8187,-0.8273,-0.8275,-0.8276,-0.8316,-0.8316,-0.8316,-0.8316,-0.8405,-0.8408,-0.8411,0,0,0,0,0,0,0,0,0,0,0,0,0,-0.812,-0.8053,-0.8185,-0.8218,-0.8222,-0.8273,-0.8275,-0.8276,-0.8316,-0.8316,-0.8316,-0.8316,-0.8404,-0.8408,-0.8411,-0.8436,0,0,-0.8423,-0.8424,0,0,0,0,0,0,0,0,-0.8116,-0.8125,-0.8212,-0.8216,-0.822,-0.8284,-0.826,-0.833,-0.8316,-0.828,-0.8316,-0.8316,-0.8365,-0.8372,-0.8389,-0.844,-0.8444,-0.8423,-0.8425,-0.8427,-0.8428,0,0,0,0,0,0,0,-0.8111,-0.8122,-0.822,-0.8213,-0.8218,-0.8228,-0.8238,-0.8273,-0.8322,-0.8284,-0.8287,-0.8297,-0.8368,-0.8385,-0.8391,-0.8445,-0.8423,-0.8426,-0.8428,-0.843,-0.852,-0.8521,0,0,0,0,0,0,-0.8101,-0.8117,-0.8217,-0.8223,-0.8167,-0.823,-0.8241,-0.8264,-0.8322,-0.8331,-0.8297,-0.8298,-0.8379,-0.8387,-0.8395,-0.8427,-0.8427,-0.843,-0.8432,-0.852,-0.852,-0.8521,0,0,0,0,0,0,-0.8098,-0.811,-0.8214,-0.8171,-0.8185,-0.8233,-0.8257,-0.8265,-0.8283,-0.8332,-0.8341,-0.8306,-0.8379,-0.8389,-0.8425,-0.8431,-0.8432,-0.8435,-0.852,-0.852,-0.8521,-0.8492,0,0,0,0,0,0,-0.8094,-0.8108,-0.8119,-0.8171,-0.8187,-0.8243,-0.8258,-0.8267,-0.829,-0.8292,-0.8343,-0.8351,-0.838,-0.842,-0.8429,-0.8436,-0.8438,-0.852,-0.852,-0.852,-0.8493,-0.8492,-0.849,0,0,0,0,0,-0.8089,-0.8108,-0.8119,-0.8131,-0.8201,-0.8244,-0.8253,-0.8286,-0.829,-0.83,-0.8331,-0.835,-0.8428,-0.8423,-0.8434,-0.8442,-0.8519,-0.852,-0.852,-0.8494,-0.8492,-0.849,0,0,0,0,0,0,-0.8055,-0.8115,-0.8129,-0.8165,-0.8199,-0.825,-0.8265,-0.8283,-0.8316,-0.8318,-0.8357,-0.8368,-0.84,-0.8425,-0.8417,-0.8468,-0.8476,-0.8478,-0.8451,-0.845,-0.8449,-0.8443,-0.8441,0,0,0,0,0,-0.8052,-0.8082,-0.8132,-0.8159,-0.8175,-0.8217,-0.8237,-0.8259,-0.8296,-0.831,-0.8344,-0.8379,-0.8411,-0.8432,-0.8465,-0.8496,-0.8508,-0.8507,-0.8506,-0.8504,-0.8506,-0.8524,-0.8524,-0.8522,-0.8522,-0.8522,0,0,-0.8045,-0.8081,-0.8098,-0.8153,-0.8182,-0.8211,-0.8229,-0.826,-0.8282,-0.8315,-0.8351,-0.8376,-0.8418,-0.8451,-0.8468,-0.8473,-0.8509,-0.8505,-0.8504,-0.8507,-0.8525,-0.8525,-0.8525,-0.8522,-0.8522,-0.8522,0,0,-0.8048,-0.8079,-0.8104,-0.8133,-0.8176,-0.8204,-0.8209,-0.8258,-0.8277,-0.8313,-0.8339,-0.8365,-0.842,-0.8449,-0.847,-0.8482,-0.85,-0.8491,-0.8485,-0.8502,-0.8502,-0.8502,-0.8506,-0.8507,-0.8493,-0.8493,-0.8493,0,-0.8034,-0.8081,-0.8115,-0.8144,-0.8167,-0.8198,-0.8223,-0.8249,-0.8301,-0.8316,-0.8321,-0.839,-0.842,-0.846,-0.8463,-0.8479,-0.8487,-0.8486,-0.8499,-0.85,-0.8501,-0.8505,-0.8506,-0.8492,-0.8492,-0.8492,-0.8492,0,-0.8061,-0.8093,-0.8108,-0.8157,-0.8181,-0.8208,-0.8246,-0.8267,-0.8286,-0.8312,-0.8349,-0.8385,-0.8426,-0.8437,-0.8456,-0.8479,-0.8481,-0.8492,-0.85,-0.8499,-0.8504,-0.8506,-0.849,-0.849,-0.8491,-0.8491,0,0,-0.8047,-0.8114,-0.8119,-0.8141,-0.8191,-0.8215,-0.8243,-0.8282,-0.8299,-0.8333,-0.8357,-0.8402,-0.8412,-0.8437,-0.8459,-0.8474,-0.848,-0.8483,-0.8485,-0.8481,-0.8508,-0.8499,-0.8501,-0.8492,-0.8493,-0.8493,-0.8504,0,-0.8057,-0.8109,-0.814,-0.8179,-0.8208,-0.8237,-0.8261,-0.8293,-0.8318,-0.8346,-0.8373,-0.8405,-0.8416,-0.8431,-0.8446,-0.8476,-0.8486,-0.8476,-0.8515,-0.8516,-0.8504,-0.8503,-0.8495,-0.8504,-0.8506,-0.8507,-0.8507,0,-0.8076,-0.811,-0.8152,-0.8197,-0.821,-0.8231,-0.8269,-0.8295,-0.8332,-0.835,-0.8376,-0.8398,-0.8428,-0.8433,-0.8474,-0.8466,-0.8483,-0.85,-0.8501,-0.8507,-0.8511,-0.8509,-0.8507,-0.8509,-0.851,-0.851,-0.8509,0,-0.8061,-0.8117,-0.8149,-0.8167,-0.8221,-0.8235,-0.8258,-0.8295,-0.8316,-0.8349,-0.8363,-0.8398,-0.8418,-0.8445,-0.8476,-0.8477,-0.8513,-0.8521,-0.8528,-0.8527,-0.8535,-0.8535,-0.8537,-0.8546,-0.8546,-0.8546,-0.8546,0,-0.807,-0.8094,-0.8143,-0.8163,-0.819,-0.8225,-0.8251,-0.8276,-0.8309,-0.8333,-0.836,-0.8382,-0.8422,-0.8449,-0.8473,-0.8503,-0.8512,-0.8526,-0.8532,-0.8524,-0.8522,-0.8536,-0.8537,-0.8546,-0.8546,-0.8546,-0.8546,0,-0.8058,-0.8092,-0.8129,-0.8176,-0.8189,-0.8207,-0.8247,-0.8267,-0.8293,-0.8324,-0.8333,-0.8373,-0.8406,-0.8439,-0.8484,-0.85,-0.853,-0.8538,-0.8517,-0.8521,-0.8526,-0.8525,-0.8538,-0.8542,-0.8547,-0.8547,-0.8547,0,-0.8062,-0.8081,-0.8131,-0.8149,-0.8171,-0.8201,-0.8222,-0.8256,-0.8278,-0.832,-0.8335,-0.837,-0.84,-0.8451,-0.8484,-0.8518,-0.8527,-0.8529,-0.8533,-0.8523,-0.8527,-0.8526,-0.8528,-0.8528,-0.8528,-0.8528,-0.8528,0,-0.8064,-0.808,-0.811,-0.8146,-0.8171,-0.8201,-0.8231,-0.8245,-0.8284,-0.8307,-0.8341,-0.8364,-0.8409,-0.8443,-0.848,-0.8504,-0.8522,-0.8526,-0.853,-0.8522,-0.8509,-0.8516,-0.8514,-0.8526,-0.8526,-0.8526,-0.8527,-0.8527,-0.8061,-0.8079,-0.8116,-0.8149,-0.8175,-0.8203,-0.8224,-0.8252,-0.8281,-0.832,-0.8338,-0.8372,-0.8407,-0.846,-0.8482,-0.8509,-0.8514,-0.8519,-0.852,-0.8521,-0.8519,-0.8504,-0.8516,-0.8516,-0.8516,-0.8516,-0.8516,0,-0.8065,-0.809,-0.8119,-0.8161,-0.8186,-0.8201,-0.8235,-0.8255,-0.8285,-0.8316,-0.8345,-0.8383,-0.8416,-0.8451,-0.8486,-0.85,-0.8509,-0.8508,-0.8508,-0.8513,-0.8512,-0.8506,-0.85,-0.85,-0.85,-0.85,-0.85,-0.85,-0.807,-0.8101,-0.8121,-0.8165,-0.819,-0.8223,-0.8242,-0.8267,-0.8292,-0.8334,-0.8361,-0.8383,-0.8416,-0.8453,-0.8483,-0.8493,-0.8504,-0.85,-0.8512,-0.8511,-0.8513,-0.8514,-0.8508,-0.8503,-0.8503,-0.851,-0.851,-0.851]}]]